Time,TemperatureF,DewpointF,PressureIn,WindDirection,WindDirectionDegrees,WindSpeedMPH,WindSpeedGustMPH,Humidity,HourlyPrecipIn,Conditions,Clouds,dailyrainin,SoftwareType,DateUTC
2013-07-16 00:01:00,82.0,74.0,30.21,SW,228,0.0,1.0,76,0.00,,,0.00,,2013-07-16 04:01:00,
2013-07-16 00:32:00,81.0,74.0,30.22,SW,228,0.0,1.0,79,0.00,,,0.00,,2013-07-16 04:32:00,
2013-07-16 00:43:00,81.0,74.0,30.22,SW,228,0.0,1.0,79,0.00,,,0.00,,2013-07-16 04:43:00,
2013-07-16 00:53:00,81.0,74.0,30.22,SW,228,0.0,1.0,79,0.00,,,0.00,,2013-07-16 04:53:00,
2013-07-16 01:01:00,81.0,74.0,30.22,SW,228,0.0,1.0,79,0.00,,,0.00,,2013-07-16 05:01:00,
2013-07-16 01:22:00,81.0,74.0,30.21,SW,229,0.0,0.0,80,0.00,,,0.00,,2013-07-16 05:22:00,
2013-07-16 01:32:00,81.0,74.0,30.21,SW,229,0.0,0.0,80,0.00,,,0.00,,2013-07-16 05:32:00,
2013-07-16 01:43:00,81.0,74.0,30.21,SW,229,0.0,0.0,80,0.00,,,0.00,,2013-07-16 05:43:00,
2013-07-16 01:52:00,81.0,74.0,30.21,SW,229,0.0,0.0,80,0.00,,,0.00,,2013-07-16 05:52:00,
2013-07-16 02:22:00,79.0,74.0,30.21,SW,229,0.0,0.0,85,0.00,,,0.00,,2013-07-16 06:22:00,
2013-07-16 02:32:00,79.0,74.0,30.21,SW,229,0.0,0.0,85,0.00,,,0.00,,2013-07-16 06:32:00,
2013-07-16 02:43:00,79.0,74.0,30.21,SW,229,0.0,0.0,85,0.00,,,0.00,,2013-07-16 06:43:00,
2013-07-16 02:52:00,79.0,74.0,30.21,SW,229,0.0,0.0,85,0.00,,,0.00,,2013-07-16 06:52:00,
2013-07-16 03:01:00,79.0,74.0,30.21,SW,229,0.0,0.0,85,0.00,,,0.00,,2013-07-16 07:01:00,
2013-07-16 03:22:00,78.0,73.0,30.20,SW,229,0.0,0.0,85,0.00,,,0.00,,2013-07-16 07:22:00,
2013-07-16 03:32:00,78.0,73.0,30.20,SW,229,0.0,0.0,85,0.00,,,0.00,,2013-07-16 07:32:00,
2013-07-16 03:43:00,78.0,73.0,30.20,SW,229,0.0,0.0,85,0.00,,,0.00,,2013-07-16 07:43:00,
2013-07-16 03:52:00,78.0,73.0,30.20,SW,229,0.0,0.0,85,0.00,,,0.00,,2013-07-16 07:52:00,
2013-07-16 04:01:00,77.0,72.0,30.21,SW,229,0.0,1.0,86,0.00,,,0.00,,2013-07-16 08:01:00,
2013-07-16 04:22:00,77.0,72.0,30.21,SW,229,0.0,1.0,86,0.00,,,0.00,,2013-07-16 08:22:00,
2013-07-16 04:32:00,77.0,72.0,30.21,SW,229,0.0,1.0,86,0.00,,,0.00,,2013-07-16 08:32:00,
2013-07-16 04:43:00,77.0,72.0,30.21,SW,229,0.0,1.0,86,0.00,,,0.00,,2013-07-16 08:43:00,
2013-07-16 04:52:00,77.0,72.0,30.21,SW,229,0.0,1.0,86,0.00,,,0.00,,2013-07-16 08:52:00,
2013-07-16 05:01:00,76.0,72.0,30.21,SW,229,0.0,0.0,88,0.00,,,0.00,,2013-07-16 09:01:00,
2013-07-16 05:22:00,76.0,72.0,30.21,SW,229,0.0,0.0,88,0.00,,,0.00,,2013-07-16 09:22:00,
2013-07-16 05:32:00,76.0,72.0,30.21,SW,229,0.0,0.0,88,0.00,,,0.00,,2013-07-16 09:32:00,
2013-07-16 05:42:00,76.0,72.0,30.21,SW,229,0.0,0.0,88,0.00,,,0.00,,2013-07-16 09:42:00,
2013-07-16 05:52:00,76.0,72.0,30.21,SW,229,0.0,0.0,88,0.00,,,0.00,,2013-07-16 09:52:00,
2013-07-16 06:01:00,76.0,73.0,30.23,ENE,59,0.0,1.0,89,0.00,,,0.00,,2013-07-16 10:01:00,
2013-07-16 06:32:00,76.0,73.0,30.23,ENE,59,0.0,1.0,89,0.00,,,0.00,,2013-07-16 10:32:00,
2013-07-16 06:43:00,76.0,73.0,30.23,ENE,59,0.0,1.0,89,0.00,,,0.00,,2013-07-16 10:43:00,
2013-07-16 06:52:00,76.0,73.0,30.23,ENE,59,0.0,1.0,89,0.00,,,0.00,,2013-07-16 10:52:00,
2013-07-16 07:01:00,76.0,72.0,30.24,WSW,246,0.0,1.0,87,0.00,,,0.00,,2013-07-16 11:01:00,
2013-07-16 07:22:00,76.0,72.0,30.24,WSW,246,0.0,1.0,87,0.00,,,0.00,,2013-07-16 11:22:00,
2013-07-16 07:32:00,76.0,72.0,30.24,WSW,246,0.0,1.0,87,0.00,,,0.00,,2013-07-16 11:32:00,
2013-07-16 07:42:00,76.0,72.0,30.24,WSW,246,0.0,1.0,87,0.00,,,0.00,,2013-07-16 11:42:00,
2013-07-16 07:53:00,76.0,72.0,30.24,WSW,246,0.0,1.0,87,0.00,,,0.00,,2013-07-16 11:53:00,
2013-07-16 08:01:00,79.0,72.0,30.25,NE,54,2.0,7.0,78,0.00,,,0.00,,2013-07-16 12:01:00,
2013-07-16 08:22:00,79.0,72.0,30.25,NE,54,2.0,7.0,78,0.00,,,0.00,,2013-07-16 12:22:00,
2013-07-16 08:32:00,79.0,72.0,30.25,NE,54,2.0,7.0,78,0.00,,,0.00,,2013-07-16 12:32:00,
2013-07-16 08:43:00,79.0,72.0,30.25,NE,54,2.0,7.0,78,0.00,,,0.00,,2013-07-16 12:43:00,
2013-07-16 08:53:00,79.0,72.0,30.25,NE,54,2.0,7.0,78,0.00,,,0.00,,2013-07-16 12:53:00,
2013-07-16 09:01:00,81.0,72.0,30.26,ENE,67,3.0,9.0,73,0.00,,,0.00,,2013-07-16 13:01:00,
2013-07-16 09:22:00,81.0,72.0,30.26,ENE,67,3.0,9.0,73,0.00,,,0.00,,2013-07-16 13:22:00,
2013-07-16 09:32:00,81.0,72.0,30.26,ENE,67,3.0,9.0,73,0.00,,,0.00,,2013-07-16 13:32:00,
2013-07-16 09:42:00,81.0,72.0,30.26,ENE,67,3.0,9.0,73,0.00,,,0.00,,2013-07-16 13:42:00,
2013-07-16 09:52:00,81.0,72.0,30.26,ENE,67,3.0,9.0,73,0.00,,,0.00,,2013-07-16 13:52:00,
2013-07-16 10:22:00,83.0,73.0,30.25,NE,41,2.0,5.0,72,0.00,,,0.00,,2013-07-16 14:22:00,
2013-07-16 10:32:00,83.0,73.0,30.25,NE,41,2.0,5.0,72,0.00,,,0.00,,2013-07-16 14:32:00,
2013-07-16 10:43:00,83.0,73.0,30.25,NE,41,2.0,5.0,72,0.00,,,0.00,,2013-07-16 14:43:00,
2013-07-16 10:52:00,83.0,73.0,30.25,NE,41,2.0,5.0,72,0.00,,,0.00,,2013-07-16 14:52:00,
2013-07-16 11:01:00,83.0,73.0,30.25,NE,41,2.0,5.0,72,0.00,,,0.00,,2013-07-16 15:01:00,
2013-07-16 11:32:00,84.0,73.0,30.24,NE,52,1.0,7.0,70,0.00,,,0.00,,2013-07-16 15:32:00,
2013-07-16 11:43:00,84.0,73.0,30.24,NE,52,1.0,7.0,70,0.00,,,0.00,,2013-07-16 15:43:00,
2013-07-16 11:53:00,84.0,73.0,30.24,NE,52,1.0,7.0,70,0.00,,,0.00,,2013-07-16 15:53:00,
2013-07-16 12:01:00,84.0,73.0,30.24,NE,52,1.0,7.0,70,0.00,,,0.00,,2013-07-16 16:01:00,
2013-07-16 12:22:00,86.0,73.0,30.24,ESE,108,3.0,6.0,66,0.00,,,0.00,,2013-07-16 16:22:00,
2013-07-16 12:32:00,86.0,73.0,30.24,ESE,108,3.0,6.0,66,0.00,,,0.00,,2013-07-16 16:32:00,
2013-07-16 12:43:00,86.0,73.0,30.24,ESE,108,3.0,6.0,66,0.00,,,0.00,,2013-07-16 16:43:00,
2013-07-16 12:52:00,86.0,73.0,30.24,ESE,108,3.0,6.0,66,0.00,,,0.00,,2013-07-16 16:52:00,
2013-07-16 13:33:00,87.0,74.0,30.23,ENE,67,2.0,8.0,65,0.00,,,0.00,,2013-07-16 17:33:00,
2013-07-16 13:43:00,87.0,74.0,30.23,ENE,67,2.0,8.0,65,0.00,,,0.00,,2013-07-16 17:43:00,
2013-07-16 13:53:00,87.0,74.0,30.23,ENE,67,2.0,8.0,65,0.00,,,0.00,,2013-07-16 17:53:00,
2013-07-16 14:01:00,87.0,74.0,30.23,ENE,67,2.0,8.0,65,0.00,,,0.00,,2013-07-16 18:01:00,
2013-07-16 14:33:00,88.0,75.0,30.22,ENE,58,1.0,5.0,66,0.00,,,0.00,,2013-07-16 18:33:00,
2013-07-16 14:43:00,88.0,75.0,30.22,ENE,58,1.0,5.0,66,0.00,,,0.00,,2013-07-16 18:43:00,
2013-07-16 14:53:00,88.0,75.0,30.22,ENE,58,1.0,5.0,66,0.00,,,0.00,,2013-07-16 18:53:00,
2013-07-16 15:01:00,89.0,74.0,30.21,WNW,294,1.0,9.0,61,0.00,,,0.00,,2013-07-16 19:01:00,
2013-07-16 15:32:00,89.0,74.0,30.21,WNW,294,1.0,9.0,61,0.00,,,0.00,,2013-07-16 19:32:00,
2013-07-16 15:43:00,89.0,74.0,30.21,WNW,294,1.0,9.0,61,0.00,,,0.00,,2013-07-16 19:43:00,
2013-07-16 15:52:00,89.0,74.0,30.21,WNW,294,1.0,9.0,61,0.00,,,0.00,,2013-07-16 19:52:00,
2013-07-16 16:01:00,90.0,74.0,30.19,ENE,61,1.0,4.0,60,0.00,,,0.00,,2013-07-16 20:01:00,
2013-07-16 16:22:00,90.0,74.0,30.19,ENE,61,1.0,4.0,60,0.00,,,0.00,,2013-07-16 20:22:00,
2013-07-16 16:32:00,90.0,74.0,30.19,ENE,61,1.0,4.0,60,0.00,,,0.00,,2013-07-16 20:32:00,
2013-07-16 16:43:00,90.0,74.0,30.19,ENE,61,1.0,4.0,60,0.00,,,0.00,,2013-07-16 20:43:00,
2013-07-16 16:52:00,90.0,74.0,30.19,ENE,61,1.0,4.0,60,0.00,,,0.00,,2013-07-16 20:52:00,
2013-07-16 17:01:00,90.0,75.0,30.19,North,5,0.0,4.0,61,0.00,,,0.00,,2013-07-16 21:01:00,
2013-07-16 17:32:00,90.0,75.0,30.19,North,5,0.0,4.0,61,0.00,,,0.00,,2013-07-16 21:32:00,
2013-07-16 17:43:00,90.0,75.0,30.19,North,5,0.0,4.0,61,0.00,,,0.00,,2013-07-16 21:43:00,
2013-07-16 17:52:00,90.0,75.0,30.19,North,5,0.0,4.0,61,0.00,,,0.00,,2013-07-16 21:52:00,
2013-07-16 18:01:00,90.0,73.0,30.18,WNW,302,0.0,1.0,58,0.00,,,0.00,,2013-07-16 22:01:00,
2013-07-16 18:22:00,90.0,73.0,30.18,WNW,302,0.0,1.0,58,0.00,,,0.00,,2013-07-16 22:22:00,
2013-07-16 18:33:00,90.0,73.0,30.18,WNW,302,0.0,1.0,58,0.00,,,0.00,,2013-07-16 22:33:00,
2013-07-16 18:43:00,90.0,73.0,30.18,WNW,302,0.0,1.0,58,0.00,,,0.00,,2013-07-16 22:43:00,
2013-07-16 18:52:00,90.0,73.0,30.18,WNW,302,0.0,1.0,58,0.00,,,0.00,,2013-07-16 22:52:00,
2013-07-16 19:01:00,89.0,73.0,30.18,NNE,14,0.0,0.0,59,0.00,,,0.00,,2013-07-16 23:01:00,
2013-07-16 19:22:00,89.0,73.0,30.18,NNE,14,0.0,0.0,59,0.00,,,0.00,,2013-07-16 23:22:00,
2013-07-16 19:32:00,89.0,73.0,30.18,NNE,14,0.0,0.0,59,0.00,,,0.00,,2013-07-16 23:32:00,
2013-07-16 19:43:00,89.0,73.0,30.18,NNE,14,0.0,0.0,59,0.00,,,0.00,,2013-07-16 23:43:00,
2013-07-16 19:52:00,89.0,73.0,30.18,NNE,14,0.0,0.0,59,0.00,,,0.00,,2013-07-16 23:52:00,
2013-07-16 20:01:00,84.0,72.0,30.19,NNE,14,0.0,0.0,68,0.00,,,0.00,,2013-07-17 00:01:00,
2013-07-16 20:22:00,84.0,72.0,30.19,NNE,14,0.0,0.0,68,0.00,,,0.00,,2013-07-17 00:22:00,
2013-07-16 20:33:00,84.0,72.0,30.19,NNE,14,0.0,0.0,68,0.00,,,0.00,,2013-07-17 00:33:00,
2013-07-16 20:42:00,84.0,72.0,30.19,NNE,14,0.0,0.0,68,0.00,,,0.00,,2013-07-17 00:42:00,
2013-07-16 20:52:00,84.0,72.0,30.19,NNE,14,0.0,0.0,68,0.00,,,0.00,,2013-07-17 00:52:00,
2013-07-16 21:01:00,83.0,70.0,30.19,North,5,0.0,0.0,66,0.00,,,0.00,,2013-07-17 01:01:00,
2013-07-16 21:22:00,83.0,70.0,30.19,North,5,0.0,0.0,66,0.00,,,0.00,,2013-07-17 01:22:00,
2013-07-16 21:32:00,83.0,70.0,30.19,North,5,0.0,0.0,66,0.00,,,0.00,,2013-07-17 01:32:00,
2013-07-16 21:43:00,83.0,70.0,30.19,North,5,0.0,0.0,66,0.00,,,0.00,,2013-07-17 01:43:00,
2013-07-16 21:53:00,83.0,70.0,30.19,North,5,0.0,0.0,66,0.00,,,0.00,,2013-07-17 01:53:00,
2013-07-16 22:22:00,81.0,71.0,30.22,North,355,0.0,0.0,71,0.00,,,0.00,,2013-07-17 02:22:00,
2013-07-16 22:32:00,81.0,71.0,30.22,North,355,0.0,0.0,71,0.00,,,0.00,,2013-07-17 02:32:00,
2013-07-16 22:43:00,81.0,71.0,30.22,North,355,0.0,0.0,71,0.00,,,0.00,,2013-07-17 02:43:00,
2013-07-16 22:53:00,81.0,71.0,30.22,North,355,0.0,0.0,71,0.00,,,0.00,,2013-07-17 02:53:00,
2013-07-16 23:01:00,81.0,71.0,30.22,North,355,0.0,0.0,71,0.00,,,0.00,,2013-07-17 03:01:00,
2013-07-16 23:32:00,79.0,71.0,30.21,North,355,0.0,0.0,76,0.00,,,0.00,,2013-07-17 03:32:00,
2013-07-16 23:43:00,79.0,71.0,30.21,North,355,0.0,0.0,76,0.00,,,0.00,,2013-07-17 03:43:00,
2013-07-16 23:53:00,79.0,71.0,30.21,North,355,0.0,0.0,76,0.00,,,0.00,,2013-07-17 03:53:00,